Location: Lewisville
(33.0462°N, 96.9942°W)
Time: 10:36:53
(UTC-06:00)

Hubble Space Telescope - Pass Details

Date: 12 December 2021
Orbit: 534 x 538 km, 28.5° (Epoch: 19 January)

Event Time Altitude Azimuth Distance (km) Brightness Sun altitude
Rises 19:18:28 0° 217° (SW) 2,665 5.1 -23.7°
Reaches altitude 10° 19:21:29 10° 194° (SSW) 1,777 3.7 -24.3°
Enters shadow 19:22:59 14° 174° (S) 1,518 3.1 -24.6°
